Wind_Speed
24 24 24 24 24 25 25 25 25 24 22 21 21 20 19 19 18 17 17 16 16 16 17 16 15 14 14 15 15 16 16 17 17 17 17 18 19 20 21 21 21 22 22 22
24 24 25 25 25 25 25 24 25 24 22 20 20 20 20 19 19 19 17 17 18 19 19 17 16 16 16 17 18 18 19 19 20 20 20 20 21 22 22 22 22 22 23 24
25 24 25 26 24 25 25 25 25 25 23 22 21 21 20 20 19 19 19 19 19 19 19 19 18 19 18 19 19 20 21 21 21 21 21 21 22 23 24 24 23 23 24 24
25 25 26 24 25 25 25 24 24 25 24 23 23 22 21 21 20 19 20 20 20 20 19 20 21 20 21 21 20 21 22 22 24 24 23 23 23 24 24 25 25 24 24 25
27 27 27 26 25 26 25 24 24 25 25 24 24 23 22 21 21 21 21 21 21 21 21 22 22 23 23 23 21 22 22 23 25 25 25 24 24 25 25 25 25 25 26 26
29 28 28 27 26 26 25 25 24 25 24 23 24 24 23 23 23 23 23 23 22 22 23 23 24 24 24 23 23 23 23 24 25 26 26 25 25 26 26 25 26 27 27 28
30 30 30 28 28 28 27 26 25 24 23 24 24 25 25 25 25 25 24 24 24 25 25 25 25 25 25 25 25 25 26 26 26 26 26 27 27 27 27 27 27 27 28 28
32 32 31 30 30 29 29 28 27 25 25 26 26 26 26 26 25 25 25 26 25 26 27 27 27 27 26 26 26 27 27 27 28 29 27 27 28 28 27 27 27 28 28 29
33 33 32 31 31 31 30 29 27 27 27 27 27 26 27 27 27 26 26 26 27 27 28 29 29 28 28 28 28 28 28 29 29 30 29 28 28 28 28 28 28 28 28 29
32 33 33 32 32 32 31 29 28 28 28 29 28 28 28 27 27 28 28 27 28 29 30 30 29 29 29 29 29 29 29 30 30 29 28 28 28 28 28 29 29 28 28 29
32 32 33 33 33 33 33 31 30 30 30 30 30 30 29 29 28 27 27 27 29 30 30 30 30 30 29 29 29 29 29 30 29 29 28 29 29 29 30 30 30 30 30 30
33 32 32 31 32 32 32 32 31 31 31 32 31 31 30 29 28 28 28 29 30 31 31 30 30 30 29 29 29 29 29 29 29 29 29 30 29 30 29 30 30 30 30 31
32 32 32 31 31 32 32 32 32 32 32 32 32 31 31 30 30 31 30 30 31 31 32 31 31 30 30 30 30 30 30 31 31 30 31 30 30 30 29 29 29 30 30 30
32 32 32 31 31 32 32 31 31 32 31 32 32 31 31 31 31 31 30 31 31 31 32 32 31 31 31 31 31 31 31 32 31 31 31 31 30 30 29 29 29 29 29 29
33 33 32 32 32 32 32 31 30 30 30 31 31 31 31 32 31 31 31 31 31 31 31 31 31 31 31 31 32 32 32 32 31 30 30 30 31 30 30 29 29 29 29 28
33 33 33 32 32 32 32 31 30 30 29 29 30 31 31 31 31 31 31 31 31 31 31 31 32 31 32 32 32 32 32 32 32 30 30 30 30 30 30 30 29 28 28 28
31 31 32 32 32 31 31 31 30 29 28 29 29 30 30 31 31 30 30 30 30 30 31 31 31 31 32 32 32 32 32 31 30 29 30 31 31 30 30 29 29 29 28 28
31 31 32 32 31 30 30 29 29 28 28 28 28 28 28 28 28 29 30 30 30 30 30 30 30 30 30 30 31 31 30 30 29 30 30 30 29 29 28 28 28 28 28 28
30 30 29 29 29 28 28 28 27 27 27 28 28 28 28 28 28 28 29 29 28 28 28 27 28 29 29 29 30 31 30 30 30 29 29 28 28 28 28 28 27 27 27 27
29 29 28 28 28 27 27 27 27 27 27 27 27 27 28 28 27 27 26 26 26 26 26 26 27 27 28 28 29 29 29 29 29 29 28 29 29 29 28 28 27 27 27 27
28 28 27 27 27 27 26 25 25 25 25 25 25 26 26 26 26 25 25 25 25 26 26 26 27 27 27 28 28 28 28 27 27 28 27 28 28 28 28 28 29 28 28 28
25 25 26 26 26 26 26 25 25 25 24 25 25 25 25 24 25 25 24 24 25 26 26 26 26 27 27 27 27 27 27 27 27 27 27 26 26 26 26 27 28 28 27 27
23 23 23 24 25 25 26 25 25 24 24 24 24 24 24 24 24 25 25 25 25 25 25 24 25 25 25 25 25 26 26 26 26 26 26 25 25 26 26 26 25 25 25 26
21 21 21 21 22 23 24 24 24 23 23 23 23 23 23 24 24 24 24 24 23 23 23 23 23 23 23 24 24 25 25 25 25 24 25 25 24 24 25 24 24 24 25 25
19 18 19 19 19 20 20 21 22 22 22 22 22 22 22 22 22 22 22 22 22 22 23 23 24 23 22 22 23 23 23 23 23 23 24 24 24 23 23 23 24 24 24 24
18 18 18 18 18 18 18 19 20 20 20 20 20 20 20 21 21 21 21 22 22 22 22 23 23 21 21 21 21 22 22 22 22 23 23 23 23 23 23 23 23 23 24 24
17 17 17 16 16 17 17 17 18 18 19 19 19 19 20 20 21 21 21 22 22 22 22 22 21 21 21 21 22 23 22 22 22 22 22 22 22 22 22 22 22 22 23 23
Wind_Direction
250 250 254 257 258 259 260 262 262 265 267 269 269 271 269 265 262 264 266 265 265 268 269 264 264 272 279 281 285 287 288 290 292 293 292 290 292 294 294 293 290 288 288 288
251 251 253 255 255 256 257 260 263 264 264 266 267 268 269 267 264 263 263 264 266 269 271 270 273 277 280 282 285 286 289 291 291 292 291 291 292 293 293 293 291 291 290 289
251 253 254 252 254 255 256 260 263 262 262 263 266 270 271 268 265 265 264 265 268 268 268 270 274 276 280 282 285 285 287 288 290 292 293 294 293 292 292 291 290 291 292 290
251 253 253 254 254 256 258 260 261 261 260 264 267 268 269 269 266 265 264 265 267 269 271 273 274 277 280 278 282 285 287 288 291 293 292 295 295 294 293 293 291 290 291 290
253 255 258 257 256 257 258 259 261 262 262 263 263 263 266 267 264 263 262 265 267 269 273 275 276 277 278 277 282 286 287 288 290 291 292 293 294 295 295 294 292 291 291 291
254 257 260 259 259 259 262 262 263 264 263 263 263 263 266 265 263 260 262 264 266 268 271 275 278 277 276 278 279 281 285 287 288 289 291 292 293 295 294 292 291 290 291 291
254 257 260 262 262 262 263 264 264 265 264 263 263 264 263 263 260 259 261 265 267 268 270 274 278 276 276 277 278 280 282 286 287 289 291 292 292 294 293 290 290 290 291 293
253 256 259 262 263 263 265 265 265 265 266 264 262 262 263 264 264 263 262 263 267 268 270 273 275 277 279 279 279 282 284 285 286 289 291 291 291 292 291 291 293 292 292 294
252 255 258 260 262 264 265 267 266 263 264 264 262 260 261 263 264 265 263 263 266 270 271 273 275 276 278 279 279 281 282 283 284 288 288 288 288 289 289 291 293 293 293 294
250 253 257 259 262 264 266 268 268 265 263 264 265 265 263 261 261 262 263 263 266 269 271 273 273 276 278 279 280 281 282 283 285 286 287 288 288 289 290 291 292 292 293 293
249 251 253 258 261 262 264 266 267 265 263 264 266 267 266 264 263 262 262 265 267 270 271 273 273 274 276 278 279 280 281 282 284 286 288 290 290 290 290 291 291 291 292 292
250 251 254 257 258 260 262 263 263 263 264 264 265 264 264 265 263 263 264 266 268 270 271 271 272 273 275 278 281 281 281 281 282 284 285 288 290 291 291 291 291 292 293 293
250 252 254 256 259 262 263 263 262 262 262 262 262 262 264 265 264 266 266 267 270 271 272 272 272 273 276 278 280 281 282 282 283 284 285 287 289 290 290 290 291 292 293 293
251 254 255 257 261 264 264 264 263 262 263 263 263 263 263 263 266 266 266 268 271 272 272 272 273 274 277 278 279 280 281 282 282 283 284 285 287 288 290 290 291 291 292 292
250 253 256 258 262 264 265 265 264 263 263 263 263 262 263 263 264 265 267 269 271 272 272 272 273 275 276 277 278 278 282 283 282 281 283 285 286 286 287 288 288 289 290 291
251 253 257 259 260 262 266 266 266 265 265 264 262 262 264 265 266 266 268 270 271 272 274 275 274 274 275 277 277 278 281 284 284 282 283 285 286 286 287 287 286 287 288 289
252 254 256 258 261 262 263 263 263 265 266 264 266 265 265 266 267 267 269 272 272 273 275 274 274 275 275 276 277 279 281 283 282 283 286 287 286 286 286 286 285 285 287 288
252 254 256 258 259 260 261 261 260 262 264 264 266 266 265 268 272 274 275 275 275 274 275 275 276 277 278 278 279 281 282 283 284 286 287 286 285 285 285 285 286 285 287 288
253 255 255 255 257 258 259 260 260 261 263 265 266 268 269 271 275 276 276 276 276 276 276 278 280 281 281 281 282 282 283 284 284 286 287 287 286 286 286 287 287 287 288 289
252 255 255 255 255 256 258 259 259 260 262 264 264 266 269 272 275 276 275 275 275 276 277 279 281 282 283 284 284 283 283 285 285 286 286 286 287 286 286 287 286 286 287 288
250 252 253 255 256 256 257 258 258 258 260 262 263 265 268 271 272 273 273 273 274 276 278 280 282 284 283 282 283 284 285 286 287 286 286 286 286 285 285 286 286 286 286 288
249 250 251 253 253 255 257 258 257 258 260 261 263 266 268 269 271 272 275 275 274 279 281 280 282 284 283 282 284 284 285 286 287 287 286 285 286 286 286 286 285 285 286 287
251 251 252 252 252 254 256 256 257 259 261 263 264 266 268 269 270 273 275 276 276 279 280 279 282 282 282 282 284 285 286 287 287 287 286 286 286 286 287 287 287 287 287 288
249 248 249 252 256 258 257 256 258 259 261 263 265 267 268 269 271 274 276 276 277 278 280 281 283 284 284 285 286 286 287 287 288 288 288 287 287 288 288 289 289 289 289 290
247 249 250 252 256 257 256 256 258 260 261 263 264 266 269 271 274 277 277 278 279 281 282 283 284 285 286 287 289 290 290 290 289 289 290 291 290 289 289 290 291 292 293 293
249 250 251 254 255 254 255 257 260 261 262 264 266 268 270 274 276 276 277 279 280 282 283 283 283 283 285 288 290 289 290 290 290 291 291 292 292 291 291 292 293 294 295 295
248 249 249 251 253 253 256 259 263 265 266 267 268 270 272 274 275 275 276 278 280 282 283 282 281 283 285 286 288 290 290 290 291 292 292 293 293 292 291 293 294 295 296 297
Height
5851 5853 5854 5855 5857 5857 5858 5859 5860 5861 5862 5864 5865 5865 5865 5866 5867 5867 5867 5867 5867 5867 5867 5866 5866 5866 5866 5865 5864 5863 5862 5862 5860 5859 5858 5857 5856 5854 5853 5851 5850 5848 5847 5845
5845 5847 5847 5848 5850 5851 5852 5853 5854 5855 5857 5858 5858 5859 5860 5861 5862 5862 5863 5863 5863 5863 5862 5862 5862 5862 5861 5860 5859 5858 5857 5856 5855 5854 5853 5851 5850 5849 5847 5845 5843 5842 5841 5839
5839 5840 5841 5842 5844 5844 5845 5846 5848 5849 5851 5852 5853 5854 5854 5855 5856 5857 5857 5858 5858 5858 5857 5857 5857 5856 5856 5855 5854 5853 5852 5850 5849 5847 5846 5845 5844 5842 5840 5838 5837 5836 5834 5832
5832 5834 5835 5839 5838 5839 5840 5841 5842 5843 5844 5846 5847 5848 5848 5849 5849 5850 5851 5852 5852 5852 5852 5852 5851 5851 5850 5849 5848 5847 5846 5845 5843 5842 5841 5839 5837 5836 5834 5832 5830 5829 5827 5826
5826 5827 5828 5831 5832 5833 5834 5835 5836 5837 5838 5839 5840 5841 5842 5843 5843 5844 5844 5845 5846 5846 5846 5846 5845 5844 5844 5843 5842 5841 5840 5839 5837 5836 5834 5832 5831 5829 5827 5825 5823 5821 5820 5818
5819 5820 5822 5825 5826 5826 5828 5828 5830 5830 5831 5832 5833 5834 5836 5836 5837 5837 5838 5839 5839 5839 5839 5839 5838 5837 5837 5836 5836 5835 5834 5832 5830 5829 5827 5825 5823 5822 5820 5818 5816 5814 5812 5811
5812 5813 5814 5817 5818 5820 5822 5823 5823 5824 5825 5826 5827 5828 5829 5829 5829 5830 5831 5831 5832 5832 5832 5832 5831 5830 5829 5829 5828 5827 5826 5824 5823 5821 5819 5817 5815 5814 5812 5810 5809 5806 5804 5802
5805 5806 5810 5810 5811 5813 5814 5815 5816 5817 5818 5819 5820 5820 5821 5821 5822 5823 5823 5824 5824 5824 5824 5824 5824 5823 5823 5822 5821 5820 5818 5817 5815 5813 5811 5809 5808 5807 5805 5803 5801 5799 5796 5794
5798 5800 5801 5803 5804 5805 5806 5807 5808 5809 5810 5811 5812 5812 5813 5814 5814 5815 5816 5816 5816 5816 5816 5816 5816 5816 5815 5814 5813 5811 5810 5809 5808 5806 5804 5802 5800 5798 5797 5795 5792 5790 5789 5787
5789 5791 5793 5795 5796 5797 5798 5799 5800 5801 5803 5803 5804 5804 5805 5805 5806 5807 5807 5808 5808 5808 5809 5808 5808 5807 5806 5806 5805 5803 5802 5800 5799 5797 5796 5793 5792 5790 5788 5786 5784 5782 5780 5778
5781 5784 5785 5787 5788 5790 5790 5791 5792 5793 5795 5795 5796 5797 5796 5796 5797 5798 5799 5799 5800 5800 5800 5799 5799 5798 5797 5796 5796 5794 5793 5792 5790 5789 5787 5785 5783 5781 5780 5778 5776 5774 5772 5769
5773 5775 5777 5779 5780 5781 5782 5783 5784 5785 5786 5787 5787 5788 5788 5788 5789 5789 5790 5790 5790 5791 5790 5790 5789 5789 5788 5788 5787 5786 5784 5783 5781 5780 5778 5777 5775 5773 5771 5769 5767 5765 5763 5761
5764 5766 5768 5770 5772 5773 5773 5774 5775 5776 5777 5778 5778 5779 5780 5780 5780 5781 5781 5781 5781 5781 5781 5780 5780 5780 5779 5778 5777 5776 5775 5774 5772 5771 5769 5767 5766 5764 5762 5760 5758 5756 5754 5752
5756 5758 5760 5762 5764 5764 5765 5765 5766 5767 5767 5768 5769 5770 5771 5771 5771 5772 5772 5772 5772 5772 5771 5771 5770 5770 5770 5769 5768 5767 5766 5764 5763 5761 5760 5758 5757 5755 5753 5751 5749 5747 5745 5743
5748 5750 5752 5754 5755 5756 5756 5757 5758 5758 5759 5759 5760 5760 5761 5762 5762 5762 5763 5762 5763 5762 5762 5761 5761 5760 5760 5759 5758 5757 5756 5755 5753 5752 5750 5748 5747 5746 5744 5742 5741 5739 5737 5735
5739 5741 5743 5744 5746 5747 5747 5748 5749 5749 5750 5750 5751 5751 5752 5752 5753 5753 5753 5753 5753 5753 5752 5752 5752 5751 5751 5750 5749 5748 5747 5745 5743 5742 5741 5739 5738 5736 5735 5733 5732 5730 5728 5727
5731 5733 5734 5735 5737 5738 5739 5740 5740 5741 5742 5742 5743 5744 5744 5744 5745 5745 5745 5744 5744 5744 5743 5743 5742 5741 5741 5740 5740 5739 5738 5736 5735 5733 5731 5730 5728 5727 5726 5724 5723 5721 5720 5718
5722 5724 5725 5726 5728 5730 5731 5731 5732 5733 5734 5735 5735 5736 5736 5737 5737 5736 5736 5736 5736 5735 5734 5734 5733 5732 5732 5731 5730 5730 5728 5727 5726 5724 5722 5720 5719 5717 5716 5715 5713 5712 5711 5709
5713 5715 5716 5718 5719 5721 5722 5723 5724 5725 5726 5726 5727 5727 5728 5728 5729 5728 5728 5727 5727 5726 5726 5726 5725 5724 5723 5722 5721 5720 5719 5718 5717 5715 5713 5712 5710 5709 5707 5706 5704 5703 5702 5700
5705 5706 5708 5709 5711 5713 5714 5715 5716 5717 5718 5718 5719 5720 5720 5720 5720 5720 5719 5719 5719 5718 5718 5718 5717 5716 5715 5713 5712 5711 5710 5709 5707 5706 5704 5702 5701 5699 5698 5697 5695 5694 5693 5691
5696 5698 5699 5701 5703 5704 5705 5707 5708 5709 5710 5711 5711 5712 5712 5713 5712 5712 5712 5711 5711 5710 5710 5709 5708 5707 5706 5705 5703 5702 5701 5699 5698 5696 5695 5693 5692 5690 5689 5688 5686 5685 5683 5682
5688 5690 5691 5693 5695 5696 5697 5699 5700 5701 5702 5703 5704 5704 5705 5705 5705 5705 5704 5704 5704 5703 5702 5701 5700 5698 5697 5696 5695 5693 5692 5690 5689 5687 5686 5684 5683 5681 5680 5678 5677 5675 5674 5673
5681 5682 5684 5685 5687 5688 5689 5691 5692 5693 5694 5695 5696 5696 5697 5697 5697 5697 5697 5697 5696 5695 5694 5693 5691 5690 5689 5688 5686 5685 5683 5682 5680 5679 5677 5676 5674 5673 5672 5670 5668 5667 5666 5664
5674 5676 5677 5679 5680 5681 5682 5683 5685 5686 5687 5688 5689 5689 5690 5690 5690 5689 5689 5689 5688 5687 5686 5685 5684 5683 5681 5680 5679 5677 5675 5673 5672 5670 5669 5667 5666 5665 5663 5662 5660 5659 5657 5656
5669 5670 5671 5673 5674 5675 5676 5677 5679 5680 5681 5681 5682 5682 5682 5682 5683 5682 5682 5681 5680 5679 5678 5678 5676 5675 5674 5673 5671 5670 5668 5666 5664 5663 5661 5660 5658 5657 5655 5654 5653 5651 5649 5647
5664 5665 5666 5668 5669 5670 5671 5672 5673 5673 5674 5675 5675 5675 5675 5675 5675 5675 5675 5674 5673 5672 5671 5670 5669 5668 5667 5666 5664 5663 5661 5659 5658 5656 5654 5653 5651 5650 5648 5646 5645 5643 5641 5639
5660 5661 5662 5663 5664 5665 5666 5667 5667 5668 5668 5669 5669 5669 5669 5669 5669 5668 5668 5667 5666 5665 5664 5663 5662 5661 5660 5659 5657 5656 5654 5652 5651 5649 5647 5646 5644 5643 5641 5639 5637 5636 5633 5631